timestamp,wind_dir_avg,wind_spd_avg,wind_spd_max_dir,wind_spd_gust,battery_voltage,lat,long
2023-07-31 00:04:01+00:00,50.0,4.35,47.0,4.91,12.41,47.59359,-54.27349
2023-07-31 00:14:00+00:00,49.0,4.68,49.0,5.42,12.41,47.59359,-54.27349
2023-07-31 00:24:00+00:00,56.0,4.32,60.0,5.34,12.41,47.59359,-54.27349
2023-07-31 00:34:00+00:00,57.0,4.88,55.0,5.46,12.41,47.59359,-54.27349
2023-07-31 00:44:00+00:00,55.0,4.53,57.0,5.12,12.41,47.59359,-54.27349
2023-07-31 00:54:00+00:00,67.0,4.45,70.0,5.16,12.41,47.59359,-54.27349
2023-07-31 01:04:00+00:00,68.0,4.1,73.0,4.89,12.41,47.59359,-54.27349
2023-07-31 01:14:00+00:00,67.0,4.99,68.0,5.36,12.41,47.59359,-54.27349
2023-07-31 01:24:00+00:00,67.0,4.49,73.0,5.42,12.41,47.59359,-54.27349
2023-07-31 01:34:00+00:00,65.0,3.84,68.0,4.27,12.41,47.59359,-54.27349
2023-07-31 01:44:00+00:00,66.0,3.98,71.0,4.51,12.41,47.59359,-54.27349
2023-07-31 01:54:00+00:00,58.0,3.66,61.0,4.48,12.41,47.59359,-54.27349
2023-07-31 02:04:00+00:00,55.0,3.38,58.0,3.94,12.41,47.59359,-54.27349
2023-07-31 02:14:01+00:00,54.0,3.98,54.0,4.52,12.41,47.59359,-54.27349
2023-07-31 02:24:01+00:00,54.0,4.46,54.0,5.02,12.41,47.59359,-54.27349
2023-07-31 02:34:01+00:00,47.0,4.72,47.0,5.41,12.41,47.59359,-54.27349
2023-07-31 02:44:01+00:00,45.0,4.62,44.0,5.02,12.41,47.59359,-54.27349
2023-07-31 02:54:01+00:00,49.0,4.1,39.0,5.32,12.41,47.59359,-54.27349
2023-07-31 03:04:01+00:00,43.0,3.42,35.0,4.04,12.41,47.59359,-54.27349
2023-07-31 03:14:00+00:00,52.0,3.48,51.0,3.79,12.33,47.59359,-54.27349
2023-07-31 03:24:00+00:00,54.0,3.71,57.0,4.21,12.33,47.59359,-54.27349
2023-07-31 03:34:00+00:00,49.0,3.05,51.0,3.41,12.33,47.59359,-54.27349
2023-07-31 03:44:00+00:00,68.0,2.09,59.0,2.72,12.33,47.59359,-54.27349
2023-07-31 03:54:00+00:00,93.0,1.3,101.0,1.88,12.33,47.59359,-54.27349
2023-07-31 04:04:00+00:00,131.0,1.19,138.0,1.45,12.33,47.59359,-54.27349
2023-07-31 04:14:00+00:00,315.0,0.01,122.0,0.0,12.33,47.59359,-54.27349
2023-07-31 04:24:00+00:00,315.0,0.01,86.0,0.0,12.33,47.59359,-54.27349
2023-07-31 04:34:00+00:00,315.0,0.01,42.0,0.0,12.33,47.59359,-54.27349
2023-07-31 04:44:00+00:00,349.0,3.26,347.0,3.7,12.33,47.59359,-54.27349
2023-07-31 04:54:00+00:00,315.0,0.01,5.0,0.0,12.33,47.59359,-54.27349
2023-07-31 05:04:00+00:00,60.0,1.49,60.0,1.5,12.33,47.59359,-54.27349
2023-07-31 05:14:00+00:00,315.0,0.01,44.0,0.0,12.33,47.59359,-54.27349
2023-07-31 05:24:00+00:00,33.0,1.86,34.0,1.94,12.33,47.59359,-54.27349
2023-07-31 05:34:00+00:00,315.0,0.01,26.0,0.0,12.33,47.59359,-54.27349
2023-07-31 05:44:00+00:00,315.0,0.01,26.0,0.0,12.33,47.59359,-54.27349
2023-07-31 05:54:00+00:00,138.0,1.03,146.0,1.25,12.33,47.59359,-54.27349
2023-07-31 06:04:00+00:00,271.0,0.83,291.0,1.56,12.33,47.59359,-54.27349
2023-07-31 06:14:01+00:00,217.0,2.43,210.0,2.92,12.25,47.59359,-54.27349
2023-07-31 06:24:01+00:00,256.0,0.79,258.0,0.98,12.25,47.59359,-54.27349
2023-07-31 06:34:01+00:00,297.0,1.93,297.0,2.36,12.25,47.59359,-54.27349
2023-07-31 06:44:01+00:00,290.0,1.44,294.0,1.74,12.25,47.59359,-54.27349
2023-07-31 06:54:01+00:00,279.0,1.35,301.0,1.74,12.25,47.59359,-54.27349
2023-07-31 07:04:01+00:00,282.0,1.46,281.0,1.73,12.25,47.59359,-54.27349
2023-07-31 07:14:00+00:00,216.0,1.51,220.0,1.71,12.33,47.59359,-54.27349
2023-07-31 07:24:00+00:00,255.0,1.55,269.0,1.81,12.33,47.59359,-54.27349
2023-07-31 07:34:00+00:00,226.0,1.49,236.0,1.63,12.33,47.59359,-54.27349
2023-07-31 07:44:00+00:00,234.0,2.33,237.0,2.69,12.33,47.59359,-54.27349
2023-07-31 07:54:00+00:00,246.0,2.93,244.0,3.16,12.33,47.59359,-54.27349
2023-07-31 08:04:00+00:00,242.0,3.18,240.0,3.64,12.33,47.59359,-54.27349
2023-07-31 08:14:01+00:00,237.0,3.32,232.0,3.91,12.17,47.59359,-54.27349
2023-07-31 08:24:01+00:00,235.0,3.21,237.0,3.41,12.17,47.59359,-54.27349
2023-07-31 08:34:01+00:00,225.0,2.81,225.0,3.23,12.17,47.59359,-54.27349
2023-07-31 08:44:01+00:00,216.0,2.56,215.0,3.12,12.17,47.59359,-54.27349
2023-07-31 08:54:01+00:00,228.0,2.49,222.0,3.0,12.17,47.59359,-54.27349
2023-07-31 09:04:01+00:00,223.0,2.46,219.0,3.13,12.17,47.59359,-54.27349
2023-07-31 09:14:01+00:00,217.0,3.35,212.0,4.02,12.25,47.59359,-54.27349
2023-07-31 09:24:01+00:00,221.0,2.74,225.0,3.25,12.25,47.59359,-54.27349
2023-07-31 09:34:01+00:00,227.0,2.73,221.0,3.39,12.25,47.59359,-54.27349
2023-07-31 09:44:01+00:00,217.0,2.8,215.0,3.27,12.25,47.59359,-54.27349
2023-07-31 09:54:01+00:00,224.0,3.59,226.0,4.07,12.25,47.59359,-54.27349
2023-07-31 10:04:01+00:00,232.0,3.74,233.0,4.57,12.25,47.59359,-54.27349
2023-07-31 10:14:00+00:00,220.0,4.84,220.0,5.46,12.49,47.59359,-54.27349
2023-07-31 10:24:00+00:00,228.0,2.95,218.0,3.41,12.49,47.59359,-54.27349
2023-07-31 10:34:00+00:00,229.0,3.31,222.0,3.71,12.49,47.59359,-54.27349
2023-07-31 10:44:00+00:00,221.0,4.86,221.0,5.56,12.49,47.59359,-54.27349
2023-07-31 10:54:00+00:00,238.0,3.77,238.0,4.7,12.49,47.59359,-54.27349
2023-07-31 11:04:00+00:00,229.0,4.25,232.0,5.51,12.49,47.59359,-54.27349
2023-07-31 11:14:01+00:00,211.0,4.23,209.0,4.74,13.44,47.59359,-54.27349
2023-07-31 11:24:01+00:00,196.0,4.03,198.0,4.5,13.44,47.59359,-54.27349
2023-07-31 11:34:01+00:00,207.0,3.89,210.0,4.43,13.44,47.59359,-54.27349
2023-07-31 11:44:01+00:00,212.0,4.5,216.0,5.13,13.44,47.59359,-54.27349
2023-07-31 11:54:01+00:00,212.0,4.99,213.0,5.52,13.44,47.59359,-54.27349
2023-07-31 12:04:01+00:00,203.0,5.3,201.0,5.7,13.44,47.59359,-54.27349
2023-07-31 12:14:00+00:00,202.0,4.66,206.0,5.3,13.6,47.59359,-54.27349
2023-07-31 12:24:00+00:00,204.0,4.4,202.0,5.11,13.6,47.59359,-54.27349
2023-07-31 12:34:00+00:00,195.0,5.15,195.0,5.78,13.6,47.59359,-54.27349
2023-07-31 12:44:00+00:00,192.0,6.33,192.0,6.98,13.6,47.59359,-54.27349
2023-07-31 12:54:00+00:00,196.0,6.14,198.0,7.02,13.6,47.59359,-54.27349
2023-07-31 13:04:00+00:00,190.0,6.36,189.0,6.93,13.6,47.59359,-54.27349
2023-07-31 13:14:01+00:00,198.0,6.87,199.0,7.59,13.68,47.59359,-54.27349
2023-07-31 13:24:01+00:00,208.0,6.76,210.0,7.38,13.68,47.59359,-54.27349
2023-07-31 13:34:01+00:00,207.0,6.66,207.0,7.62,13.68,47.59359,-54.27349
2023-07-31 13:44:01+00:00,210.0,5.65,212.0,6.28,13.68,47.59359,-54.27349
2023-07-31 13:54:01+00:00,209.0,5.61,207.0,6.03,13.68,47.59359,-54.27349
2023-07-31 14:04:01+00:00,214.0,6.11,214.0,6.83,13.68,47.59359,-54.27349
2023-07-31 14:14:01+00:00,211.0,6.48,212.0,6.96,13.68,47.59359,-54.27349
2023-07-31 14:24:01+00:00,213.0,6.07,213.0,7.23,13.68,47.59359,-54.27349
2023-07-31 14:34:01+00:00,215.0,5.83,215.0,6.61,13.68,47.59359,-54.27349
2023-07-31 14:44:01+00:00,217.0,5.77,214.0,6.46,13.68,47.59359,-54.27349
2023-07-31 14:54:01+00:00,208.0,5.83,211.0,6.41,13.68,47.59359,-54.27349
2023-07-31 15:04:01+00:00,212.0,6.56,211.0,7.04,13.68,47.59359,-54.27349
2023-07-31 15:14:01+00:00,207.0,6.73,209.0,7.23,13.6,47.59359,-54.27349
2023-07-31 15:24:01+00:00,208.0,6.84,205.0,7.31,13.6,47.59359,-54.27349
2023-07-31 15:34:01+00:00,211.0,7.65,211.0,8.23,13.6,47.59359,-54.27349
2023-07-31 15:44:01+00:00,210.0,6.98,211.0,7.67,13.6,47.59359,-54.27349
2023-07-31 15:54:01+00:00,203.0,6.9,204.0,7.64,13.6,47.59359,-54.27349
2023-07-31 16:04:01+00:00,196.0,6.2,196.0,6.71,13.6,47.59359,-54.27349
2023-07-31 16:14:00+00:00,198.0,6.14,200.0,6.77,14.32,47.59359,-54.27349
2023-07-31 16:24:00+00:00,204.0,6.41,202.0,6.99,14.32,47.59359,-54.27349
2023-07-31 16:34:00+00:00,204.0,7.06,203.0,7.76,14.32,47.59359,-54.27349
2023-07-31 16:44:00+00:00,207.0,7.08,208.0,7.85,14.32,47.59359,-54.27349
2023-07-31 16:54:00+00:00,201.0,5.4,199.0,5.81,14.32,47.59359,-54.27349
2023-07-31 17:04:00+00:00,206.0,6.15,208.0,6.72,14.32,47.59359,-54.27349
2023-07-31 17:14:01+00:00,205.0,6.83,207.0,7.9,14.24,47.59359,-54.27349
2023-07-31 17:24:01+00:00,211.0,7.45,209.0,8.19,14.24,47.59359,-54.27349
2023-07-31 17:34:01+00:00,224.0,7.93,228.0,9.69,14.24,47.59359,-54.27349
2023-07-31 17:44:01+00:00,224.0,8.4,228.0,9.97,14.24,47.59359,-54.27349
2023-07-31 17:54:01+00:00,218.0,7.76,225.0,9.58,14.24,47.59359,-54.27349
2023-07-31 18:04:01+00:00,212.0,6.9,212.0,7.69,14.24,47.59359,-54.27349
2023-07-31 18:14:01+00:00,210.0,7.01,213.0,8.56,13.84,47.59359,-54.27349
2023-07-31 18:24:01+00:00,206.0,6.78,206.0,7.78,13.84,47.59359,-54.27349
2023-07-31 18:34:01+00:00,209.0,7.67,211.0,8.16,13.84,47.59359,-54.27349
2023-07-31 18:44:01+00:00,212.0,8.22,220.0,9.06,13.84,47.59359,-54.27349
2023-07-31 18:54:01+00:00,208.0,6.7,213.0,7.52,13.84,47.59359,-54.27349
2023-07-31 19:04:01+00:00,212.0,6.99,213.0,8.09,13.84,47.59359,-54.27349
2023-07-31 19:14:00+00:00,213.0,9.24,211.0,9.9,13.68,47.59359,-54.27349
2023-07-31 19:24:00+00:00,218.0,7.95,219.0,8.7,13.68,47.59359,-54.27349
2023-07-31 19:34:00+00:00,219.0,8.34,215.0,9.1,13.68,47.59359,-54.27349
2023-07-31 19:44:00+00:00,216.0,7.64,217.0,8.42,13.68,47.59359,-54.27349
2023-07-31 19:54:00+00:00,215.0,7.44,218.0,8.34,13.68,47.59359,-54.27349
2023-07-31 20:04:00+00:00,217.0,7.84,217.0,9.08,13.68,47.59359,-54.27349
2023-07-31 20:14:00+00:00,216.0,8.31,214.0,9.36,13.68,47.59359,-54.27349
2023-07-31 20:24:00+00:00,219.0,8.78,219.0,10.15,13.68,47.59359,-54.27349
2023-07-31 20:34:00+00:00,221.0,8.24,218.0,9.84,13.68,47.59359,-54.27349
2023-07-31 20:44:00+00:00,221.0,8.63,220.0,9.72,13.68,47.59359,-54.27349
2023-07-31 20:54:00+00:00,226.0,8.51,226.0,9.31,13.68,47.59359,-54.27349
2023-07-31 21:04:00+00:00,225.0,8.37,222.0,9.06,13.68,47.59359,-54.27349
2023-07-31 21:14:00+00:00,219.0,8.0,220.0,9.13,13.44,47.59359,-54.27349
2023-07-31 21:24:00+00:00,219.0,7.66,220.0,8.54,13.44,47.59359,-54.27349
2023-07-31 21:34:00+00:00,222.0,7.37,223.0,8.35,13.44,47.59359,-54.27349
2023-07-31 21:44:00+00:00,214.0,5.81,221.0,7.21,13.44,47.59359,-54.27349
2023-07-31 21:54:00+00:00,213.0,6.08,220.0,6.88,13.44,47.59359,-54.27349
2023-07-31 22:04:00+00:00,212.0,5.33,214.0,6.0,13.44,47.59359,-54.27349
2023-07-31 22:14:00+00:00,211.0,6.01,215.0,6.94,13.21,47.59359,-54.27349
2023-07-31 22:24:00+00:00,205.0,6.2,211.0,6.63,13.21,47.59359,-54.27349
2023-07-31 22:34:00+00:00,206.0,5.75,202.0,6.11,13.21,47.59359,-54.27349
2023-07-31 22:44:00+00:00,203.0,5.44,203.0,6.21,13.21,47.59359,-54.27349
2023-07-31 22:54:00+00:00,204.0,5.58,208.0,6.14,13.21,47.59359,-54.27349
2023-07-31 23:04:00+00:00,204.0,5.61,200.0,6.1,13.21,47.59359,-54.27349
2023-07-31 23:14:00+00:00,205.0,5.83,210.0,6.85,12.81,47.59359,-54.27349
2023-07-31 23:24:00+00:00,209.0,5.71,210.0,6.81,12.81,47.59359,-54.27349
2023-07-31 23:34:00+00:00,210.0,4.94,211.0,5.5,12.81,47.59359,-54.27349
2023-07-31 23:44:00+00:00,206.0,4.76,204.0,5.39,12.81,47.59359,-54.27349
2023-07-31 23:54:00+00:00,198.0,4.4,199.0,4.92,12.81,47.59359,-54.27349
